Year,Month,Day,Hour,Minute,Value (Times are PST for temperature in C)
2017,08,02,00,00,20.60
2017,08,02,00,01,20.40
2017,08,02,00,02,20.30
2017,08,02,00,03,20.20
2017,08,02,00,04,20.10
2017,08,02,00,05,20.00
2017,08,02,00,06,19.90
2017,08,02,00,07,19.80
2017,08,02,00,08,19.70
2017,08,02,00,09,19.70
2017,08,02,00,10,19.60
2017,08,02,00,11,19.60
2017,08,02,00,12,19.50
2017,08,02,00,13,19.50
2017,08,02,00,14,19.40
2017,08,02,00,15,19.40
2017,08,02,00,16,19.30
2017,08,02,00,17,19.30
2017,08,02,00,18,19.30
2017,08,02,00,19,19.30
2017,08,02,00,20,19.30
2017,08,02,00,21,19.30
2017,08,02,00,22,19.20
2017,08,02,00,23,19.20
2017,08,02,00,24,19.20
2017,08,02,00,25,19.20
2017,08,02,00,26,19.20
2017,08,02,00,27,19.10
2017,08,02,00,28,19.10
2017,08,02,00,29,19.10
2017,08,02,00,30,19.10
2017,08,02,00,31,19.10
2017,08,02,00,32,19.10
2017,08,02,00,33,19.10
2017,08,02,00,34,19.10
2017,08,02,00,35,19.10
2017,08,02,00,36,19.10
2017,08,02,00,37,19.10
2017,08,02,00,38,19.10
2017,08,02,00,39,19.00
2017,08,02,00,40,19.00
2017,08,02,00,41,19.00
2017,08,02,00,42,19.00
2017,08,02,00,43,19.00
2017,08,02,00,44,19.00
2017,08,02,00,45,18.90
2017,08,02,00,46,18.90
2017,08,02,00,47,18.90
2017,08,02,00,48,18.90
2017,08,02,00,49,18.80
2017,08,02,00,50,18.80
2017,08,02,00,51,18.80
2017,08,02,00,52,18.80
2017,08,02,00,53,18.80
2017,08,02,00,54,18.80
2017,08,02,00,55,18.80
2017,08,02,00,56,18.80
2017,08,02,00,57,18.80
2017,08,02,00,58,18.80
2017,08,02,00,59,18.80
2017,08,02,01,00,18.80
2017,08,02,01,01,18.70
2017,08,02,01,02,18.70
2017,08,02,01,03,18.70
2017,08,02,01,04,18.70
2017,08,02,01,05,18.60
2017,08,02,01,06,18.60
2017,08,02,01,07,18.60
2017,08,02,01,08,18.60
2017,08,02,01,09,18.60
2017,08,02,01,10,18.70
2017,08,02,01,11,18.70
2017,08,02,01,12,18.80
2017,08,02,01,13,18.80
2017,08,02,01,14,18.90
2017,08,02,01,15,19.10
2017,08,02,01,16,19.20
2017,08,02,01,17,19.40
2017,08,02,01,18,19.50
2017,08,02,01,19,19.60
2017,08,02,01,20,19.80
2017,08,02,01,21,19.90
2017,08,02,01,22,20.00
2017,08,02,01,23,20.00
2017,08,02,01,24,19.90
2017,08,02,01,25,19.80
2017,08,02,01,26,19.80
2017,08,02,01,27,19.70
2017,08,02,01,28,19.60
2017,08,02,01,29,19.40
2017,08,02,01,30,19.30
2017,08,02,01,31,19.30
2017,08,02,01,32,19.20
2017,08,02,01,33,19.10
2017,08,02,01,34,19.00
2017,08,02,01,35,19.00
2017,08,02,01,36,18.90
2017,08,02,01,37,18.80
2017,08,02,01,38,18.80
2017,08,02,01,39,18.80
2017,08,02,01,40,18.70
2017,08,02,01,41,18.70
2017,08,02,01,42,18.70
2017,08,02,01,43,18.70
2017,08,02,01,44,18.70
2017,08,02,01,45,18.70
2017,08,02,01,46,18.80
2017,08,02,01,47,18.90
2017,08,02,01,48,18.90
2017,08,02,01,49,19.00
2017,08,02,01,50,19.10
2017,08,02,01,51,19.20
2017,08,02,01,52,19.20
2017,08,02,01,53,19.30
2017,08,02,01,54,19.40
2017,08,02,01,55,19.40
2017,08,02,01,56,19.40
2017,08,02,01,57,19.40
2017,08,02,01,58,19.40
2017,08,02,01,59,19.50
2017,08,02,02,00,19.50
2017,08,02,02,01,19.50
2017,08,02,02,02,19.60
2017,08,02,02,03,19.60
2017,08,02,02,04,19.70
2017,08,02,02,05,19.70
2017,08,02,02,06,19.70
2017,08,02,02,07,19.70
2017,08,02,02,08,19.70
2017,08,02,02,09,19.70
2017,08,02,02,10,19.60
2017,08,02,02,11,19.60
2017,08,02,02,12,19.50
2017,08,02,02,13,19.40
2017,08,02,02,14,19.30
2017,08,02,02,15,19.30
2017,08,02,02,16,19.20
2017,08,02,02,17,19.10
2017,08,02,02,18,19.00
2017,08,02,02,19,18.90
2017,08,02,02,20,18.80
2017,08,02,02,21,18.70
2017,08,02,02,22,18.60
2017,08,02,02,23,18.50
2017,08,02,02,24,18.40
2017,08,02,02,25,18.30
2017,08,02,02,26,18.30
2017,08,02,02,27,18.20
2017,08,02,02,28,18.10
2017,08,02,02,29,18.10
2017,08,02,02,30,18.00
2017,08,02,02,31,18.00
2017,08,02,02,32,17.90
2017,08,02,02,33,17.90
2017,08,02,02,34,17.80
2017,08,02,02,35,17.80
2017,08,02,02,36,17.80
2017,08,02,02,37,17.70
2017,08,02,02,38,17.70
2017,08,02,02,39,17.60
2017,08,02,02,40,17.50
2017,08,02,02,41,17.50
2017,08,02,02,42,17.40
2017,08,02,02,43,17.30
2017,08,02,02,44,17.30
2017,08,02,02,45,17.20
2017,08,02,02,46,17.20
2017,08,02,02,47,17.10
2017,08,02,02,48,17.10
2017,08,02,02,49,17.00
2017,08,02,02,50,17.00
2017,08,02,02,51,16.90
2017,08,02,02,52,16.90
2017,08,02,02,53,16.90
2017,08,02,02,54,16.80
2017,08,02,02,55,16.80
2017,08,02,02,56,16.80
2017,08,02,02,57,16.80
2017,08,02,02,58,16.70
2017,08,02,02,59,16.70
2017,08,02,03,00,16.70
2017,08,02,03,01,16.70
2017,08,02,03,02,16.70
2017,08,02,03,03,16.60
2017,08,02,03,04,16.60
2017,08,02,03,05,16.70
2017,08,02,03,06,16.70
2017,08,02,03,07,16.70
2017,08,02,03,08,16.70
2017,08,02,03,09,16.70
2017,08,02,03,10,16.60
2017,08,02,03,11,16.60
2017,08,02,03,12,16.60
2017,08,02,03,13,16.60
2017,08,02,03,14,16.60
2017,08,02,03,15,16.60
2017,08,02,03,16,16.60
2017,08,02,03,17,16.60
2017,08,02,03,18,16.60
2017,08,02,03,19,16.60
2017,08,02,03,20,16.60
2017,08,02,03,21,16.60
2017,08,02,03,22,16.60
2017,08,02,03,23,16.60
2017,08,02,03,24,16.60
2017,08,02,03,25,16.60
2017,08,02,03,26,16.60
2017,08,02,03,27,16.60
2017,08,02,03,28,16.60
2017,08,02,03,29,16.60
2017,08,02,03,30,16.60
2017,08,02,03,31,16.60
2017,08,02,03,32,16.50
2017,08,02,03,33,16.50
2017,08,02,03,34,16.40
2017,08,02,03,35,16.40
2017,08,02,03,36,16.40
2017,08,02,03,37,16.40
2017,08,02,03,38,16.30
2017,08,02,03,39,16.30
2017,08,02,03,40,16.30
2017,08,02,03,41,16.30
2017,08,02,03,42,16.20
2017,08,02,03,43,16.20
2017,08,02,03,44,16.20
2017,08,02,03,45,16.20
2017,08,02,03,46,16.20
2017,08,02,03,47,16.20
2017,08,02,03,48,16.10
2017,08,02,03,49,16.20
2017,08,02,03,50,16.10
2017,08,02,03,51,16.10
2017,08,02,03,52,16.10
2017,08,02,03,53,16.10
2017,08,02,03,54,16.10
2017,08,02,03,55,16.10
2017,08,02,03,56,16.10
2017,08,02,03,57,16.10
2017,08,02,03,58,16.10
2017,08,02,03,59,16.00
2017,08,02,04,00,16.00
2017,08,02,04,01,16.00
2017,08,02,04,02,16.00
2017,08,02,04,03,15.90
2017,08,02,04,04,15.90
2017,08,02,04,05,15.90
2017,08,02,04,06,15.90
2017,08,02,04,07,15.90
2017,08,02,04,08,15.90
2017,08,02,04,09,15.90
2017,08,02,04,10,15.90
2017,08,02,04,11,15.90
2017,08,02,04,12,15.90
2017,08,02,04,13,15.90
2017,08,02,04,14,15.90
2017,08,02,04,15,15.80
2017,08,02,04,16,15.80
2017,08,02,04,17,15.80
2017,08,02,04,18,15.80
2017,08,02,04,19,15.80
2017,08,02,04,20,15.80
2017,08,02,04,21,15.80
2017,08,02,04,22,15.80
2017,08,02,04,23,15.80
2017,08,02,04,24,15.70
2017,08,02,04,25,15.70
2017,08,02,04,26,15.70
2017,08,02,04,27,15.70
2017,08,02,04,28,15.70
2017,08,02,04,29,15.70
2017,08,02,04,30,15.70
2017,08,02,04,31,15.70
2017,08,02,04,32,15.70
2017,08,02,04,33,15.70
2017,08,02,04,34,15.70
2017,08,02,04,35,15.70
2017,08,02,04,36,15.70
2017,08,02,04,37,15.70
2017,08,02,04,38,15.70
2017,08,02,04,39,15.70
2017,08,02,04,40,15.70
2017,08,02,04,41,15.70
2017,08,02,04,42,15.70
2017,08,02,04,43,15.70
2017,08,02,04,44,15.70
2017,08,02,04,45,15.70
2017,08,02,04,46,15.70
2017,08,02,04,47,15.70
2017,08,02,04,48,15.70
2017,08,02,04,49,15.70
2017,08,02,04,50,15.70
2017,08,02,04,51,15.70
2017,08,02,04,52,15.70
2017,08,02,04,53,15.70
2017,08,02,04,54,15.70
2017,08,02,04,55,15.70
2017,08,02,04,56,15.70
2017,08,02,04,57,15.60
2017,08,02,04,58,15.60
2017,08,02,04,59,15.60
2017,08,02,05,00,15.60
2017,08,02,05,01,15.60
2017,08,02,05,02,15.60
2017,08,02,05,03,15.60
2017,08,02,05,04,15.60
2017,08,02,05,05,15.50
2017,08,02,05,06,15.50
2017,08,02,05,07,15.50
2017,08,02,05,08,15.50
2017,08,02,05,09,15.50
2017,08,02,05,10,15.40
2017,08,02,05,11,15.40
2017,08,02,05,12,15.40
2017,08,02,05,13,15.40
2017,08,02,05,14,15.40
2017,08,02,05,15,15.40
2017,08,02,05,16,15.40
2017,08,02,05,17,15.40
2017,08,02,05,18,15.30
2017,08,02,05,19,15.30
2017,08,02,05,20,15.30
2017,08,02,05,21,15.30
2017,08,02,05,22,15.30
2017,08,02,05,23,15.30
2017,08,02,05,24,15.30
2017,08,02,05,25,15.30
2017,08,02,05,26,15.30
2017,08,02,05,27,15.30
2017,08,02,05,28,15.30
2017,08,02,05,29,15.30
2017,08,02,05,30,15.30
2017,08,02,05,31,15.20
2017,08,02,05,32,15.20
2017,08,02,05,33,15.20
2017,08,02,05,34,15.20
2017,08,02,05,35,15.20
2017,08,02,05,36,15.20
2017,08,02,05,37,15.20
2017,08,02,05,38,15.20
2017,08,02,05,39,15.20
2017,08,02,05,40,15.20
2017,08,02,05,41,15.20
2017,08,02,05,42,15.20
2017,08,02,05,43,15.20
2017,08,02,05,44,15.20
2017,08,02,05,45,15.20
2017,08,02,05,46,15.20
2017,08,02,05,47,15.20
2017,08,02,05,48,15.20
2017,08,02,05,49,15.20
2017,08,02,05,50,15.20
2017,08,02,05,51,15.20
2017,08,02,05,52,15.20
2017,08,02,05,53,15.20
2017,08,02,05,54,15.10
2017,08,02,05,55,15.10
2017,08,02,05,56,15.10
2017,08,02,05,57,15.10
2017,08,02,05,58,15.10
2017,08,02,05,59,15.10
2017,08,02,06,00,15.10
2017,08,02,06,01,15.10
2017,08,02,06,02,15.10
2017,08,02,06,03,15.10
2017,08,02,06,04,15.10
2017,08,02,06,05,15.10
2017,08,02,06,06,15.10
2017,08,02,06,07,15.10
2017,08,02,06,08,15.10
2017,08,02,06,09,15.10
2017,08,02,06,10,15.10
2017,08,02,06,11,15.00
2017,08,02,06,12,15.10
2017,08,02,06,13,15.10
2017,08,02,06,14,15.10
2017,08,02,06,15,15.10
2017,08,02,06,16,15.10
2017,08,02,06,17,15.10
2017,08,02,06,18,15.10
2017,08,02,06,19,15.10
2017,08,02,06,20,15.10
2017,08,02,06,21,15.10
2017,08,02,06,22,15.10
2017,08,02,06,23,15.10
2017,08,02,06,24,15.10
2017,08,02,06,25,15.10
2017,08,02,06,26,15.20
2017,08,02,06,27,15.20
2017,08,02,06,28,15.20
2017,08,02,06,29,15.20
2017,08,02,06,30,15.20
2017,08,02,06,31,15.30
2017,08,02,06,32,15.30
2017,08,02,06,33,15.30
2017,08,02,06,34,15.30
2017,08,02,06,35,15.30
2017,08,02,06,36,15.30
2017,08,02,06,37,15.30
2017,08,02,06,38,15.30
2017,08,02,06,39,15.30
2017,08,02,06,40,15.30
2017,08,02,06,41,15.30
2017,08,02,06,42,15.30
2017,08,02,06,43,15.30
2017,08,02,06,44,15.20
2017,08,02,06,45,15.20
2017,08,02,06,46,15.20
2017,08,02,06,47,15.20
2017,08,02,06,48,15.20
2017,08,02,06,49,15.20
2017,08,02,06,50,15.20
2017,08,02,06,51,15.20
2017,08,02,06,52,15.20
2017,08,02,06,53,15.20
2017,08,02,06,54,15.20
2017,08,02,06,55,15.20
2017,08,02,06,56,15.20
2017,08,02,06,57,15.30
2017,08,02,06,58,15.30
2017,08,02,06,59,15.30
2017,08,02,07,00,15.30
2017,08,02,07,01,15.30
2017,08,02,07,02,15.30
2017,08,02,07,03,15.30
2017,08,02,07,04,15.30
2017,08,02,07,05,15.30
2017,08,02,07,06,15.40
2017,08,02,07,07,15.40
2017,08,02,07,08,15.40
2017,08,02,07,09,15.40
2017,08,02,07,10,15.40
2017,08,02,07,11,15.40
2017,08,02,07,12,15.50
2017,08,02,07,13,15.50
2017,08,02,07,14,15.60
2017,08,02,07,15,15.70
2017,08,02,07,16,15.70
2017,08,02,07,17,15.80
2017,08,02,07,18,15.80
2017,08,02,07,19,15.90
2017,08,02,07,20,16.00
2017,08,02,07,21,16.00
2017,08,02,07,22,16.10
2017,08,02,07,23,16.20
2017,08,02,07,24,16.20
2017,08,02,07,25,16.30
2017,08,02,07,26,16.30
2017,08,02,07,27,16.40
2017,08,02,07,28,16.40
2017,08,02,07,29,16.50
2017,08,02,07,30,16.60
2017,08,02,07,31,16.70
2017,08,02,07,32,16.80
2017,08,02,07,33,16.80
2017,08,02,07,34,16.90
2017,08,02,07,35,17.00
2017,08,02,07,36,17.10
2017,08,02,07,37,17.10
2017,08,02,07,38,17.20
2017,08,02,07,39,17.30
2017,08,02,07,40,17.40
2017,08,02,07,41,17.40
2017,08,02,07,42,17.50
2017,08,02,07,43,17.60
2017,08,02,07,44,17.60
2017,08,02,07,45,17.70
2017,08,02,07,46,17.80
2017,08,02,07,47,17.80
2017,08,02,07,48,17.90
2017,08,02,07,49,18.00
2017,08,02,07,50,18.10
2017,08,02,07,51,18.20
2017,08,02,07,52,18.30
2017,08,02,07,53,18.40
2017,08,02,07,54,18.50
2017,08,02,07,55,18.60
2017,08,02,07,56,18.70
2017,08,02,07,57,18.90
2017,08,02,07,58,19.00
2017,08,02,07,59,19.10
2017,08,02,08,00,19.20
2017,08,02,08,01,19.30
2017,08,02,08,02,19.30
2017,08,02,08,03,19.40
2017,08,02,08,04,19.50
2017,08,02,08,05,19.50
2017,08,02,08,06,19.60
2017,08,02,08,07,19.60
2017,08,02,08,08,19.70
2017,08,02,08,09,19.80
2017,08,02,08,10,19.80
2017,08,02,08,11,19.80
2017,08,02,08,12,19.80
2017,08,02,08,13,19.90
2017,08,02,08,14,19.90
2017,08,02,08,15,19.90
2017,08,02,08,16,20.00
2017,08,02,08,17,20.00
2017,08,02,08,18,20.00
2017,08,02,08,19,20.10
2017,08,02,08,20,20.10
2017,08,02,08,21,20.10
2017,08,02,08,22,20.10
2017,08,02,08,23,20.10
2017,08,02,08,24,20.10
2017,08,02,08,25,20.10
2017,08,02,08,26,20.10
2017,08,02,08,27,20.10
2017,08,02,08,28,20.00
2017,08,02,08,29,20.00
2017,08,02,08,30,20.00
2017,08,02,08,31,20.00
2017,08,02,08,32,19.90
2017,08,02,08,33,19.90
2017,08,02,08,34,19.90
2017,08,02,08,35,19.90
2017,08,02,08,36,20.00
2017,08,02,08,37,20.00
2017,08,02,08,38,20.10
2017,08,02,08,39,20.10
2017,08,02,08,40,20.10
2017,08,02,08,41,20.20
2017,08,02,08,42,20.20
2017,08,02,08,43,20.20
2017,08,02,08,44,20.20
2017,08,02,08,45,20.20
2017,08,02,08,46,20.20
2017,08,02,08,47,20.20
2017,08,02,08,48,20.20
2017,08,02,08,49,20.20
2017,08,02,08,50,20.20
2017,08,02,08,51,20.20
2017,08,02,08,52,20.20
2017,08,02,08,53,20.20
2017,08,02,08,54,20.20
2017,08,02,08,55,20.20
2017,08,02,08,56,20.30
2017,08,02,08,57,20.30
2017,08,02,08,58,20.30
2017,08,02,08,59,20.30
2017,08,02,09,00,20.30
2017,08,02,09,01,20.30
2017,08,02,09,02,20.30
2017,08,02,09,03,20.40
2017,08,02,09,04,20.40
2017,08,02,09,05,20.40
2017,08,02,09,06,20.50
2017,08,02,09,07,20.50
2017,08,02,09,08,20.60
2017,08,02,09,09,20.60
2017,08,02,09,10,20.70
2017,08,02,09,11,20.70
2017,08,02,09,12,20.80
2017,08,02,09,13,20.90
2017,08,02,09,14,21.00
2017,08,02,09,15,21.10
2017,08,02,09,16,21.20
2017,08,02,09,17,21.30
2017,08,02,09,18,21.40
2017,08,02,09,19,21.40
2017,08,02,09,20,21.50
2017,08,02,09,21,21.50
2017,08,02,09,22,21.60
2017,08,02,09,23,21.60
2017,08,02,09,24,21.60
2017,08,02,09,25,21.70
2017,08,02,09,26,21.70
2017,08,02,09,27,21.70
2017,08,02,09,28,21.70
2017,08,02,09,29,21.70
2017,08,02,09,30,21.80
2017,08,02,09,31,21.80
2017,08,02,09,32,21.80
2017,08,02,09,33,21.90
2017,08,02,09,34,22.00
2017,08,02,09,35,22.00
2017,08,02,09,36,22.10
2017,08,02,09,37,22.10
2017,08,02,09,38,22.20
2017,08,02,09,39,22.20
2017,08,02,09,40,22.20
2017,08,02,09,41,22.30
2017,08,02,09,42,22.30
2017,08,02,09,43,22.30
2017,08,02,09,44,22.30
2017,08,02,09,45,22.20
2017,08,02,09,46,22.20
2017,08,02,09,47,22.20
2017,08,02,09,48,22.20
2017,08,02,09,49,22.20
2017,08,02,09,50,22.20
2017,08,02,09,51,22.20
2017,08,02,09,52,22.20
2017,08,02,09,53,22.30
2017,08,02,09,54,22.30
2017,08,02,09,55,22.30
2017,08,02,09,56,22.30
2017,08,02,09,57,22.30
2017,08,02,09,58,22.30
2017,08,02,09,59,22.30
2017,08,02,10,00,22.40
2017,08,02,10,01,22.40
2017,08,02,10,02,22.40
2017,08,02,10,03,22.50
2017,08,02,10,04,22.50
2017,08,02,10,05,22.60
2017,08,02,10,06,22.60
2017,08,02,10,07,22.70
2017,08,02,10,08,22.80
2017,08,02,10,09,22.80
2017,08,02,10,10,22.90
2017,08,02,10,11,22.90
2017,08,02,10,12,22.90
2017,08,02,10,13,22.90
2017,08,02,10,14,22.80
2017,08,02,10,15,22.80
2017,08,02,10,16,22.80
2017,08,02,10,17,22.80
2017,08,02,10,18,22.80
2017,08,02,10,19,22.90
2017,08,02,10,20,22.90
2017,08,02,10,21,22.90
2017,08,02,10,22,22.90
2017,08,02,10,23,23.00
2017,08,02,10,24,23.00
2017,08,02,10,25,23.20
2017,08,02,10,26,23.30
2017,08,02,10,27,23.40
2017,08,02,10,28,23.60
2017,08,02,10,29,23.60
2017,08,02,10,30,23.70
2017,08,02,10,31,23.80
2017,08,02,10,32,23.80
2017,08,02,10,33,23.90
2017,08,02,10,34,24.10
2017,08,02,10,35,24.20
2017,08,02,10,36,24.30
2017,08,02,10,37,24.40
2017,08,02,10,38,24.60
2017,08,02,10,39,24.60
2017,08,02,10,40,24.60
2017,08,02,10,41,24.50
2017,08,02,10,42,24.40
2017,08,02,10,43,24.30
2017,08,02,10,44,24.20
2017,08,02,10,45,24.10
2017,08,02,10,46,24.00
2017,08,02,10,47,23.80
2017,08,02,10,48,23.70
2017,08,02,10,49,23.60
2017,08,02,10,50,23.50
2017,08,02,10,51,23.50
2017,08,02,10,52,23.50
2017,08,02,10,53,23.60
2017,08,02,10,54,23.60
2017,08,02,10,55,23.60
2017,08,02,10,56,23.70
2017,08,02,10,57,23.80
2017,08,02,10,58,23.80
2017,08,02,10,59,23.80
2017,08,02,11,00,23.90
2017,08,02,11,01,23.90
2017,08,02,11,02,23.80
2017,08,02,11,03,23.80
2017,08,02,11,04,23.80
2017,08,02,11,05,23.80
2017,08,02,11,06,23.80
2017,08,02,11,07,23.90
2017,08,02,11,08,23.90
2017,08,02,11,09,23.90
2017,08,02,11,10,23.90
2017,08,02,11,11,23.90
2017,08,02,11,12,24.00
2017,08,02,11,13,24.00
2017,08,02,11,14,24.10
2017,08,02,11,15,24.10
2017,08,02,11,16,24.10
2017,08,02,11,17,24.10
2017,08,02,11,18,24.20
2017,08,02,11,19,24.20
2017,08,02,11,20,24.30
2017,08,02,11,21,24.30
2017,08,02,11,22,24.30
2017,08,02,11,23,24.20
2017,08,02,11,24,24.20
2017,08,02,11,25,24.10
2017,08,02,11,26,24.00
2017,08,02,11,27,24.00
2017,08,02,11,28,24.00
2017,08,02,11,29,24.00
2017,08,02,11,30,24.10
2017,08,02,11,31,24.20
2017,08,02,11,32,24.40
2017,08,02,11,33,24.60
2017,08,02,11,34,24.70
2017,08,02,11,35,24.80
2017,08,02,11,36,24.90
2017,08,02,11,37,25.00
2017,08,02,11,38,25.10
2017,08,02,11,39,25.10
2017,08,02,11,40,25.20
2017,08,02,11,41,25.20
2017,08,02,11,42,25.30
2017,08,02,11,43,25.20
2017,08,02,11,44,25.20
2017,08,02,11,45,25.20
2017,08,02,11,46,25.30
2017,08,02,11,47,25.40
2017,08,02,11,48,25.50
2017,08,02,11,49,25.70
2017,08,02,11,50,25.80
2017,08,02,11,51,26.00
2017,08,02,11,52,26.20
2017,08,02,11,53,26.30
2017,08,02,11,54,26.40
2017,08,02,11,55,26.40
2017,08,02,11,56,26.50
2017,08,02,11,57,26.50
2017,08,02,11,58,26.60
2017,08,02,11,59,26.60
2017,08,02,12,00,26.70
2017,08,02,12,01,26.90
2017,08,02,12,02,27.00
2017,08,02,12,03,27.20
2017,08,02,12,04,27.30
2017,08,02,12,05,27.40
2017,08,02,12,06,27.50
2017,08,02,12,07,27.60
2017,08,02,12,08,27.60
2017,08,02,12,09,27.60
2017,08,02,12,10,27.60
2017,08,02,12,11,27.60
2017,08,02,12,12,27.70
2017,08,02,12,13,27.70
2017,08,02,12,14,27.80
2017,08,02,12,15,27.80
2017,08,02,12,16,27.80
2017,08,02,12,17,27.80
2017,08,02,12,18,27.90
2017,08,02,12,19,28.00
2017,08,02,12,20,28.10
2017,08,02,12,21,28.20
2017,08,02,12,22,28.30
2017,08,02,12,23,28.30
2017,08,02,12,24,28.30
2017,08,02,12,25,28.20
2017,08,02,12,26,28.10
2017,08,02,12,27,28.00
2017,08,02,12,28,27.90
2017,08,02,12,29,27.90
2017,08,02,12,30,27.90
2017,08,02,12,31,28.00
2017,08,02,12,32,28.10
2017,08,02,12,33,28.20
2017,08,02,12,34,28.40
2017,08,02,12,35,28.50
2017,08,02,12,36,28.70
2017,08,02,12,37,28.80
2017,08,02,12,38,28.80
2017,08,02,12,39,28.90
2017,08,02,12,40,28.90
2017,08,02,12,41,29.00
2017,08,02,12,42,29.10
2017,08,02,12,43,29.20
2017,08,02,12,44,29.30
2017,08,02,12,45,29.20
2017,08,02,12,46,29.20
2017,08,02,12,47,29.00
2017,08,02,12,48,28.90
2017,08,02,12,49,28.90
2017,08,02,12,50,28.80
2017,08,02,12,51,28.60
2017,08,02,12,52,28.40
2017,08,02,12,53,28.20
2017,08,02,12,54,27.90
2017,08,02,12,55,27.80
2017,08,02,12,56,27.50
2017,08,02,12,57,27.40
2017,08,02,12,58,27.40
2017,08,02,12,59,27.50
2017,08,02,13,00,27.70
2017,08,02,13,01,27.80
2017,08,02,13,02,27.90
2017,08,02,13,03,28.00
2017,08,02,13,04,28.10
2017,08,02,13,05,28.20
2017,08,02,13,06,28.30
2017,08,02,13,07,28.50
2017,08,02,13,08,28.60
2017,08,02,13,09,28.60
2017,08,02,13,10,28.50
2017,08,02,13,11,28.30
2017,08,02,13,12,28.20
2017,08,02,13,13,28.00
2017,08,02,13,14,27.90
2017,08,02,13,15,27.70
2017,08,02,13,16,27.50
2017,08,02,13,17,27.30
2017,08,02,13,18,27.20
2017,08,02,13,19,27.10
2017,08,02,13,20,27.10
2017,08,02,13,21,27.10
2017,08,02,13,22,27.10
2017,08,02,13,23,27.10
2017,08,02,13,24,27.20
2017,08,02,13,25,27.20
2017,08,02,13,26,27.20
2017,08,02,13,27,27.10
2017,08,02,13,28,27.10
2017,08,02,13,29,27.00
2017,08,02,13,30,26.90
2017,08,02,13,31,26.90
2017,08,02,13,32,26.80
2017,08,02,13,33,26.80
2017,08,02,13,34,26.80
2017,08,02,13,35,26.80
2017,08,02,13,36,26.70
2017,08,02,13,37,26.60
2017,08,02,13,38,26.60
2017,08,02,13,39,26.50
2017,08,02,13,40,26.40
2017,08,02,13,41,26.40
2017,08,02,13,42,26.40
2017,08,02,13,43,26.50
2017,08,02,13,44,26.60
2017,08,02,13,45,26.70
2017,08,02,13,46,26.90
2017,08,02,13,47,27.00
2017,08,02,13,48,27.00
2017,08,02,13,49,26.90
2017,08,02,13,50,26.80
2017,08,02,13,51,26.80
2017,08,02,13,52,26.80
2017,08,02,13,53,26.80
2017,08,02,13,54,26.80
2017,08,02,13,55,26.90
2017,08,02,13,56,27.00
2017,08,02,13,57,27.10
2017,08,02,13,58,27.20
2017,08,02,13,59,27.30
2017,08,02,14,00,27.40
2017,08,02,14,01,27.40
2017,08,02,14,02,27.40
2017,08,02,14,03,27.40
2017,08,02,14,04,27.40
2017,08,02,14,05,27.40
2017,08,02,14,06,27.50
2017,08,02,14,07,27.50
2017,08,02,14,08,27.70
2017,08,02,14,09,27.90
2017,08,02,14,10,28.20
2017,08,02,14,11,28.40
2017,08,02,14,12,28.50
2017,08,02,14,13,28.60
2017,08,02,14,14,28.70
2017,08,02,14,15,28.90
2017,08,02,14,16,29.00
2017,08,02,14,17,29.10
2017,08,02,14,18,29.20
2017,08,02,14,19,29.20
2017,08,02,14,20,29.30
2017,08,02,14,21,29.30
2017,08,02,14,22,29.40
2017,08,02,14,23,29.50
2017,08,02,14,24,29.50
2017,08,02,14,25,29.60
2017,08,02,14,26,29.50
2017,08,02,14,27,29.50
2017,08,02,14,28,29.50
2017,08,02,14,29,29.60
2017,08,02,14,30,29.60
2017,08,02,14,31,29.60
2017,08,02,14,32,29.60
2017,08,02,14,33,29.40
2017,08,02,14,34,29.30
2017,08,02,14,35,29.10
2017,08,02,14,36,28.80
2017,08,02,14,37,28.80
2017,08,02,14,38,28.70
2017,08,02,14,39,28.60
2017,08,02,14,40,28.60
2017,08,02,14,41,28.60
2017,08,02,14,42,28.50
2017,08,02,14,43,28.50
2017,08,02,14,44,28.40
2017,08,02,14,45,28.40
2017,08,02,14,46,28.30
2017,08,02,14,47,28.30
2017,08,02,14,48,28.30
2017,08,02,14,49,28.40
2017,08,02,14,50,28.50
2017,08,02,14,51,28.40
2017,08,02,14,52,28.40
2017,08,02,14,53,28.30
2017,08,02,14,54,28.30
2017,08,02,14,55,28.40
2017,08,02,14,56,28.40
2017,08,02,14,57,28.40
2017,08,02,14,58,28.40
2017,08,02,14,59,28.40
2017,08,02,15,00,28.30
2017,08,02,15,01,28.30
2017,08,02,15,02,28.30
2017,08,02,15,03,28.30
2017,08,02,15,04,28.30
2017,08,02,15,05,28.30
2017,08,02,15,06,28.30
2017,08,02,15,07,28.30
2017,08,02,15,08,28.30
2017,08,02,15,09,28.20
2017,08,02,15,10,28.20
2017,08,02,15,11,28.10
2017,08,02,15,12,28.10
2017,08,02,15,13,28.10
2017,08,02,15,14,28.20
2017,08,02,15,15,28.20
2017,08,02,15,16,28.30
2017,08,02,15,17,28.30
2017,08,02,15,18,28.40
2017,08,02,15,19,28.50
2017,08,02,15,20,28.60
2017,08,02,15,21,28.70
2017,08,02,15,22,28.80
2017,08,02,15,23,28.90
2017,08,02,15,24,29.00
2017,08,02,15,25,29.10
2017,08,02,15,26,29.10
2017,08,02,15,27,29.00
2017,08,02,15,28,29.00
2017,08,02,15,29,29.00
2017,08,02,15,30,29.00
2017,08,02,15,31,28.90
2017,08,02,15,32,28.80
2017,08,02,15,33,28.80
2017,08,02,15,34,28.70
2017,08,02,15,35,28.80
2017,08,02,15,36,28.80
2017,08,02,15,37,28.80
2017,08,02,15,38,28.80
2017,08,02,15,39,28.80
2017,08,02,15,40,28.80
2017,08,02,15,41,28.80
2017,08,02,15,42,28.80
2017,08,02,15,43,28.80
2017,08,02,15,44,28.90
2017,08,02,15,45,28.90
2017,08,02,15,46,29.00
2017,08,02,15,47,29.10
2017,08,02,15,48,29.20
2017,08,02,15,49,29.30
2017,08,02,15,50,29.40
2017,08,02,15,51,29.60
2017,08,02,15,52,29.70
2017,08,02,15,53,29.70
2017,08,02,15,54,29.90
2017,08,02,15,55,29.90
2017,08,02,15,56,30.10
2017,08,02,15,57,30.10
2017,08,02,15,58,30.10
2017,08,02,15,59,30.10
2017,08,02,16,00,30.10
2017,08,02,16,01,30.10
2017,08,02,16,02,30.20
2017,08,02,16,03,30.30
2017,08,02,16,04,30.40
2017,08,02,16,05,30.40
2017,08,02,16,06,30.50
2017,08,02,16,07,30.70
2017,08,02,16,08,30.80
2017,08,02,16,09,31.00
2017,08,02,16,10,31.10
2017,08,02,16,11,31.30
2017,08,02,16,12,31.50
2017,08,02,16,13,31.70
2017,08,02,16,14,31.80
2017,08,02,16,15,32.00
2017,08,02,16,16,32.10
2017,08,02,16,17,32.20
2017,08,02,16,18,32.30
2017,08,02,16,19,32.30
2017,08,02,16,20,32.40
2017,08,02,16,21,32.40
2017,08,02,16,22,32.40
2017,08,02,16,23,32.40
2017,08,02,16,24,32.50
2017,08,02,16,25,32.50
2017,08,02,16,26,32.40
2017,08,02,16,27,32.40
2017,08,02,16,28,32.40
2017,08,02,16,29,32.30
2017,08,02,16,30,32.20
2017,08,02,16,31,32.20
2017,08,02,16,32,32.10
2017,08,02,16,33,32.00
2017,08,02,16,34,31.90
2017,08,02,16,35,31.90
2017,08,02,16,36,31.90
2017,08,02,16,37,32.00
2017,08,02,16,38,32.00
2017,08,02,16,39,32.10
2017,08,02,16,40,32.10
2017,08,02,16,41,32.10
2017,08,02,16,42,32.10
2017,08,02,16,43,32.20
2017,08,02,16,44,32.20
2017,08,02,16,45,32.30
2017,08,02,16,46,32.40
2017,08,02,16,47,32.40
2017,08,02,16,48,32.50
2017,08,02,16,49,32.60
2017,08,02,16,50,32.70
2017,08,02,16,51,32.70
2017,08,02,16,52,32.80
2017,08,02,16,53,32.80
2017,08,02,16,54,32.90
2017,08,02,16,55,32.90
2017,08,02,16,56,32.90
2017,08,02,16,57,32.90
2017,08,02,16,58,33.00
2017,08,02,16,59,33.00
2017,08,02,17,00,33.00
2017,08,02,17,01,33.10
2017,08,02,17,02,33.10
2017,08,02,17,03,33.10
2017,08,02,17,04,33.20
2017,08,02,17,05,33.20
2017,08,02,17,06,33.30
2017,08,02,17,07,33.20
2017,08,02,17,08,33.20
2017,08,02,17,09,33.20
2017,08,02,17,10,33.20
2017,08,02,17,11,33.20
2017,08,02,17,12,33.20
2017,08,02,17,13,33.20
2017,08,02,17,14,33.20
2017,08,02,17,15,33.20
2017,08,02,17,16,33.20
2017,08,02,17,17,33.20
2017,08,02,17,18,33.20
2017,08,02,17,19,33.10